FW4773 Weather Reports


Display with metric or nautical units.
time (UTC)temp
F
wind
direction
speed
MPH
gust
MPH
rain 1hr
in
rain 24hr
in
rain mn
in
humidity
%
barometer
mb
20260903040018 72 211 0.0 0.0 0.00 0.12 0.12 95 1020.3
20260903034516 72 211 0.0 0.0 0.00 0.12 0.12 95 1020.3
20260903033016 73 211 0.0 0.0 0.00 0.12 0.12 96 1020.3
20260903031512 72 4 0.0 0.0 0.00 0.12 0.12 95 1020.4
20260903030014 72 4 0.0 0.0 0.00 0.12 0.12 95 1020.4
20260903024508 72 4 0.0 0.0 0.00 0.12 0.12 95 1020.7
20260903023006 71 346 0.0 0.0 0.00 0.12 0.12 95 1020.8
20260903021504 71 11 0.0 0.0 0.00 0.12 0.12 95 1020.6
20260903020003 72 11 0.0 0.0 0.00 0.12 0.12 94 1020.5
20260903014630 72 11 0.0 0.0 0.00 0.12 0.12 94 1020.6
20260903013101 72 207 0.0 0.0 0.00 0.12 0.12 94 1020.2
20260903011607 72 3 0.0 0.0 0.00 0.12 0.12 94 1020.3
20260903010050 73 2 0.0 0.0 0.00 0.12 0.12 94 1020.6
20260903004549 72 2 0.0 0.0 0.00 0.12 0.12 93 1020.5
20260903003051 73 2 0.0 0.0 0.00 0.12 0.12 93 1019.9
20260903001543 73 2 0.0 0.0 0.00 0.12 0.12 93 1020.2
20260903000051 73 3 0.0 0.0 0.00 0.12 0.12 92 1020.2
20260902234542 73 2 0.0 0.0 0.00 0.12 0.12 92 1020.0
20260902233049 74 2 0.0 0.0 0.00 0.12 0.12 91 1020.2
20260902231538 74 2 0.0 0.0 0.00 0.12 0.12 90 1020.3
20260902230041 74 2 0.0 0.0 0.00 0.12 0.12 89 1020.5
20260902224532 75 49 0.0 0.0 0.00 0.12 0.12 91 1020.3
20260902223031 74 49 0.0 0.0 0.00 0.12 0.12 92 1020.2
20260902221529 74 49 0.0 0.0 0.00 0.12 0.12 92 1020.3
20260902220040 74 49 0.0 0.0 0.00 0.12 0.12 92 1020.8
20260902214541 74 14 0.0 0.0 0.00 0.12 0.12 92 1021.0
20260902213022 73 8 0.0 0.0 0.00 0.12 0.12 92 1020.9
20260902211619 73 8 0.0 0.0 0.00 0.12 0.12 92 1020.7
20260902210017 73 321 0.0 0.0 0.00 0.12 0.12 92 1021.0
20260902204515 73 8 0.0 1.0 0.00 0.12 0.12 92 1020.7
20260902203014 73 237 0.0 1.0 0.00 0.12 0.12 91 1020.5
20260902201528 73 224 0.0 1.0 0.00 0.12 0.12 91 1020.8
20260902200009 73 241 0.0 2.0 0.00 0.12 0.12 90 1021.1
20260902194507 73 213 2.0 3.0 0.00 0.12 0.12 91 1021.1
20260902193006 73 213 0.0 2.0 0.00 0.12 0.12 92 1021.1
20260902191509 72 18 0.0 0.0 0.00 0.12 0.12 93 1020.4
20260902190100 72 19 0.0 1.0 0.02 0.12 0.12 92 1020.6
20260902184605 72 268 0.0 2.0 0.09 0.12 0.12 92 1020.9
20260902183105 73 198 0.0 0.0 0.12 0.12 0.12 91 1021.4
20260902181556 72 198 0.0 1.0 0.12 0.12 0.12 90 1021.7
20260902180050 73 240 4.0 6.0 0.10 0.10 0.10 87 1022.7
20260902174553 77 65 7.0 22.0 0.03 0.03 0.03 80 1024.1
20260902173144 83 18 5.0 9.0 0.00 0.00 0.00 76 1023.6
20260902171543 84 26 2.0 6.0 0.00 0.00 0.00 75 1022.3
20260902170033 84 359 0.0 4.0 0.00 0.00 0.00 76 1021.9
20260902164530 83 37 1.0 4.0 0.00 0.00 0.00 77 1021.7
20260902163126 82 91 1.0 6.0 0.00 0.00 0.00 77 1021.9
20260902161524 82 15 2.0 6.0 0.00 0.00 0.00 77 1021.7
20260902160034 82 103 4.0 7.0 0.00 0.00 0.00 76 1021.5
20260902154527 81 105 5.0 8.0 0.00 0.00 0.00 78 1021.6
20260902153115 81 82 2.0 8.0 0.00 0.00 0.00 79 1021.6
20260902151511 81 113 1.0 7.0 0.00 0.00 0.00 79 1021.5
20260902150007 80 101 3.0 6.0 0.00 0.00 0.00 79 1021.8
20260902144505 80 78 1.0 6.0 0.00 0.00 0.00 81 1021.7
20260902143002 80 94 1.0 5.0 0.00 0.00 0.00 81 1021.7
20260902141609 80 359 2.0 4.0 0.00 0.00 0.00 81 1021.7
20260902140057 78 91 5.0 10.0 0.00 0.00 0.00 83 1021.4
20260902134555 79 113 5.0 11.0 0.00 0.00 0.00 83 1021.4
20260902133057 79 116 4.0 6.0 0.00 0.00 0.00 82 1021.4
20260902131555 79 93 0.0 8.0 0.00 0.00 0.00 85 1021.2
20260902130051 78 100 6.0 10.0 0.00 0.00 0.00 85 1021.1
20260902124600 78 121 4.0 8.0 0.00 0.00 0.00 86 1020.9
20260902123109 78 105 2.0 7.0 0.00 0.00 0.00 86 1020.8
20260902121546 77 359 0.0 1.0 0.00 0.00 0.00 88 1020.8
20260902120038 76 355 0.0 0.0 0.00 0.00 0.00 88 1020.7
20260902114542 75 354 0.0 0.0 0.00 0.00 0.00 89 1020.7
20260902113034 75 355 0.0 0.0 0.00 0.00 0.00 90 1020.7
20260902111543 74 356 0.0 0.0 0.00 0.00 0.00 92 1020.8
20260902110029 0 0.0 0.0 0.00 0.00 0.00 1020.5
20260902104524 0 0.0 0.0 0.00 0.00 0.00 1020.7
20260902103021 0 0.0 0.0 0.00 0.00 0.00 1020.4
20260902101513 0 0.0 0.0 0.00 0.00 0.00 1020.3
20260902100006 0 0.0 0.0 0.00 0.00 0.00 1020.0
20260902094501 0 0.0 0.0 0.00 0.00 0.00 1020.3
20260902093056 0 4 0.0 1.0 0.00 0.00 0.00 89 1020.5
20260902091654 74 59 0.0 1.0 0.00 0.00 0.00 88 1020.2
20260902090048 74 59 0.0 1.0 0.00 0.00 0.00 87 1020.1
20260902084550 75 58 0.0 1.0 0.00 0.00 0.00 87 1020.2
20260902083043 75 85 0.0 1.0 0.00 0.00 0.00 86 1020.3
20260902081545 75 96 0.0 1.0 0.00 0.00 0.00 86 1020.2
20260902080040 76 5 0.0 1.0 0.00 0.00 0.00 85 1020.3
20260902074534 76 75 0.0 1.0 0.00 0.00 0.00 84 1020.1
20260902073035 76 94 0.0 2.0 0.00 0.00 0.00 84 1019.8
20260902071628 76 106 0.0 2.0 0.00 0.00 0.00 83 1019.6
20260902070032 77 86 0.0 3.0 0.00 0.00 0.00 82 1019.7
20260902064535 77 119 0.0 6.0 0.00 0.00 0.00 81 1019.6
20260902063017 78 207 1.0 6.0 0.00 0.00 0.00 81 1019.4
20260902061516 78 100 2.0 7.0 0.00 0.00 0.00 80 1019.5
20260902060015 79 110 2.0 5.0 0.00 0.00 0.00 81 1019.6
20260902054512 79 64 0.0 13.0 0.00 0.00 0.00 81 1019.5
20260902053008 78 12 3.0 9.0 0.00 0.00 0.00 85 1019.3
20260902051504 78 352 0.0 1.0 0.00 0.00 0.00 85 1019.0
20260902050002 78 352 0.0 0.0 0.00 0.00 0.00 85 1019.1
20260902044559 79 352 0.0 1.0 0.00 0.00 0.00 86 1019.2
20260902043059 79 352 0.0 0.0 0.00 0.00 0.00 86 1019.0
20260902041558 80 55 0.0 0.0 0.00 0.00 0.00 85 1019.0